{"data":{"norad_id":64448,"intl_designator":"2025-130L","name":"STARLINK-34433","alt_names":[],"object_type":"PAYLOAD","status":"ACTIVE","operator":null,"country":"US","launch_date":"2025-06-18","launch_site_code":"AFETR","launch_vehicle":null,"mission":null,"orbit_class":"UNKNOWN","rcs_meters":null,"size_class":null,"mass_kg":null,"dimensions":null,"purposes":["comms"],"wikipedia_slug":null,"has_3d_model":false,"image_url":null,"decayed_at":null,"tle_current":{"epoch":"2026-09-20T19:31:54.368544Z","epoch_age_seconds":104220,"freshness":"FRESH","line1":"1 64448U 25130L   26263.81382371  .00015498  00000+0  46894-3 0  9999","line2":"2 64448  53.1560 260.3518 0000981  86.3522 273.7593 15.34395368 70603","mean_motion":15.34395368,"eccentricity":9.81e-5,"inclination_deg":53.156,"raan_deg":260.3518,"arg_perigee_deg":86.3522,"mean_anomaly_deg":273.7593,"bstar":0.00046894,"rev_number":7060,"period_min":93.848041386945,"perigee_km":462.04591974375,"apogee_km":463.38809530003,"semimajor_km":6840.8540075219,"source":"CELESTRAK","updated_at":"2026-09-21T09:00:35.353990Z"}}}